WMT4952 LIBD-LATI

Flight info

Callsign WMT4952
Flight time N/A
Altitude 23000
Route DOLON L612 KAPPO DCT GOKEL DCT DITAN
Aircraft A321/M-SDE3FGHIRWY/LB1

Departure

Time 2026-04-27 20:33
Airport Bari Karol Wojtyła International Airport (LIBD)

Arrival

Time N/A
Airport Tirana International Airport Mother Teresa (LATI)
Time Latitude Longitude Altitude Speed Heading
2026-04-27 20:09 41.13497 16.76237 149 ft 0 kts 160°
2026-04-27 20:22 41.13506 16.76234 148 ft 2 kts 154°
2026-04-27 20:22 41.13520 16.76225 148 ft 2 kts 161°
2026-04-27 20:23 41.13534 16.76222 148 ft 2 kts 181°
2026-04-27 20:23 41.13549 16.76225 147 ft 2 kts 197°
2026-04-27 20:23 41.13562 16.76233 146 ft 2 kts 216°
2026-04-27 20:23 41.13573 16.76247 146 ft 2 kts 232°
2026-04-27 20:24 41.13580 16.76261 145 ft 0 kts 247°
2026-04-27 20:24 41.13583 16.76269 145 ft 0 kts 250°
2026-04-27 20:26 41.13582 16.76269 145 ft 0 kts 250°
2026-04-27 20:26 41.13580 16.76260 145 ft 1 kts 250°
2026-04-27 20:26 41.13575 16.76243 146 ft 1 kts 250°
2026-04-27 20:26 41.13571 16.76230 146 ft 3 kts 250°
2026-04-27 20:27 41.13557 16.76182 147 ft 7 kts 249°
2026-04-27 20:27 41.13569 16.76097 149 ft 13 kts 319°
2026-04-27 20:27 41.13635 16.75991 148 ft 16 kts 275°
2026-04-27 20:27 41.13607 16.75858 151 ft 15 kts 249°
2026-04-27 20:28 41.13570 16.75730 153 ft 14 kts 249°
2026-04-27 20:28 41.13533 16.75599 155 ft 14 kts 249°
2026-04-27 20:28 41.13497 16.75476 157 ft 13 kts 249°
2026-04-27 20:28 41.13475 16.75398 159 ft 12 kts 250°
2026-04-27 20:29 41.13436 16.75260 164 ft 10 kts 249°
2026-04-27 20:29 41.13412 16.75176 166 ft 9 kts 249°
2026-04-27 20:29 41.13388 16.75090 168 ft 9 kts 249°
2026-04-27 20:29 41.13367 16.75016 172 ft 7 kts 249°
2026-04-27 20:30 41.13350 16.74958 174 ft 6 kts 249°
2026-04-27 20:30 41.13332 16.74894 175 ft 8 kts 250°
2026-04-27 20:30 41.13310 16.74816 177 ft 9 kts 249°
2026-04-27 20:30 41.13286 16.74731 180 ft 9 kts 249°
2026-04-27 20:31 41.13261 16.74647 183 ft 10 kts 249°
2026-04-27 20:31 41.13234 16.74552 185 ft 11 kts 249°
2026-04-27 20:31 41.13204 16.74444 188 ft 12 kts 250°
2026-04-27 20:31 41.13174 16.74338 192 ft 11 kts 250°
2026-04-27 20:32 41.13171 16.74234 195 ft 11 kts 294°
2026-04-27 20:32 41.13213 16.74140 196 ft 12 kts 310°
2026-04-27 20:32 41.13279 16.74093 195 ft 5 kts 353°
2026-04-27 20:32 41.13312 16.74152 193 ft 14 kts 68°
2026-04-27 20:33 41.13420 16.74534 184 ft 79 kts 70°
2026-04-27 20:33 41.13691 16.75496 157 ft 143 kts 70°
2026-04-27 20:33 41.14095 16.76933 304 ft 178 kts 71°
2026-04-27 20:33 41.14516 16.78418 1061 ft 169 kts 70°
2026-04-27 20:34 41.14957 16.79877 1554 ft 176 kts 69°
2026-04-27 20:34 41.15427 16.81411 2012 ft 183 kts 69°
2026-04-27 20:34 41.15928 16.83084 2236 ft 207 kts 69°
2026-04-27 20:34 41.16490 16.84980 2345 ft 237 kts 69°
2026-04-27 20:35 41.17131 16.87157 2613 ft 263 kts 69°
2026-04-27 20:35 41.17797 16.89419 3350 ft 268 kts 69°
2026-04-27 20:35 41.18475 16.91724 4129 ft 271 kts 69°
2026-04-27 20:35 41.19156 16.94070 4896 ft 275 kts 69°
2026-04-27 20:36 41.19832 16.96421 5649 ft 278 kts 68°
2026-04-27 20:36 41.20508 16.98860 6413 ft 281 kts 73°
2026-04-27 20:36 41.20749 17.01431 7156 ft 284 kts 92°
2026-04-27 20:36 41.20443 17.04022 7893 ft 287 kts 102°
2026-04-27 20:37 41.20140 17.05758 8377 ft 289 kts 102°
2026-04-27 20:37 41.19529 17.09224 9325 ft 292 kts 101°
2026-04-27 20:37 41.19080 17.11860 10029 ft 294 kts 101°
2026-04-27 20:37 41.18578 17.14493 10715 ft 297 kts 108°
2026-04-27 20:38 41.17646 17.16949 11340 ft 303 kts 122°
2026-04-27 20:38 41.16280 17.19195 11461 ft 327 kts 130°
2026-04-27 20:38 41.14681 17.21544 11262 ft 359 kts 131°
2026-04-27 20:38 41.12922 17.24106 11016 ft 391 kts 131°
2026-04-27 20:39 41.11039 17.26861 11313 ft 406 kts 130°
2026-04-27 20:39 41.09754 17.28745 11768 ft 408 kts 130°
2026-04-27 20:39 41.07208 17.32490 12597 ft 415 kts 130°
2026-04-27 20:39 41.05262 17.35359 13175 ft 420 kts 129°
2026-04-27 20:40 41.03296 17.38265 13734 ft 426 kts 129°
2026-04-27 20:40 41.01314 17.41193 14281 ft 431 kts 129°
2026-04-27 20:40 40.99274 17.44206 14821 ft 437 kts 129°
2026-04-27 20:40 40.97237 17.47215 15343 ft 443 kts 128°
2026-04-27 20:41 40.95178 17.50252 15854 ft 448 kts 128°
2026-04-27 20:41 40.93048 17.53391 16401 ft 453 kts 128°
2026-04-27 20:41 40.90943 17.56485 16964 ft 456 kts 128°
2026-04-27 20:41 40.88800 17.59627 17507 ft 460 kts 128°
2026-04-27 20:42 40.86655 17.62760 18034 ft 463 kts 128°
2026-04-27 20:42 40.84482 17.65941 18550 ft 467 kts 128°
2026-04-27 20:42 40.82317 17.69131 19041 ft 470 kts 128°
2026-04-27 20:42 40.80115 17.72380 19532 ft 473 kts 128°
2026-04-27 20:43 40.77879 17.75675 20010 ft 476 kts 128°
2026-04-27 20:43 40.75655 17.78948 20481 ft 479 kts 128°
2026-04-27 20:43 40.73425 17.82224 20954 ft 482 kts 128°
2026-04-27 20:43 40.71166 17.85539 21397 ft 485 kts 128°
2026-04-27 20:44 40.68899 17.88864 21815 ft 488 kts 128°
2026-04-27 20:44 40.66610 17.92216 22242 ft 490 kts 128°
2026-04-27 20:44 40.64312 17.95587 22634 ft 492 kts 126°
2026-04-27 20:44 40.62382 17.99268 22977 ft 485 kts 111°
2026-04-27 20:45 40.61209 18.03385 23086 ft 479 kts 97°
2026-04-27 20:45 40.60843 18.07727 23107 ft 472 kts 85°
2026-04-27 20:45 40.60807 18.12078 23102 ft 472 kts 83°
2026-04-27 20:45 40.60809 18.16423 23100 ft 472 kts 83°
2026-04-27 20:46 40.60806 18.20740 23100 ft 472 kts 83°
2026-04-27 20:46 40.60789 18.25040 23099 ft 472 kts 84°
2026-04-27 20:46 40.60760 18.29360 23100 ft 472 kts 84°
2026-04-27 20:46 40.60722 18.33695 23099 ft 472 kts 84°
2026-04-27 20:47 40.60679 18.38036 23099 ft 473 kts 84°
2026-04-27 20:47 40.60631 18.42343 23100 ft 473 kts 84°
2026-04-27 20:47 40.60580 18.46723 23099 ft 473 kts 84°
2026-04-27 20:47 40.60528 18.51027 23100 ft 472 kts 84°
2026-04-27 20:48 40.60474 18.55351 23100 ft 472 kts 84°
2026-04-27 20:48 40.60437 18.58241 23100 ft 472 kts 84°
2026-04-27 20:48 40.60360 18.64056 23099 ft 472 kts 84°
2026-04-27 20:48 40.60302 18.68421 23099 ft 473 kts 85°
2026-04-27 20:49 40.60241 18.72751 23100 ft 472 kts 85°
2026-04-27 20:49 40.60178 18.77097 23099 ft 473 kts 85°
2026-04-27 20:49 40.60116 18.81434 23100 ft 473 kts 85°
2026-04-27 20:49 40.60050 18.85803 23100 ft 473 kts 85°
2026-04-27 20:50 40.59983 18.90089 23100 ft 473 kts 85°
2026-04-27 20:50 40.60059 18.94412 23083 ft 464 kts 75°
2026-04-27 20:50 40.60928 18.98406 23098 ft 450 kts 59°
2026-04-27 20:50 40.62573 19.01830 23103 ft 441 kts 45°
2026-04-27 20:51 40.64877 19.04543 23106 ft 436 kts 31°
2026-04-27 20:51 40.67390 19.06755 23103 ft 438 kts 30°
2026-04-27 20:51 40.69951 19.08957 23100 ft 440 kts 30°
2026-04-27 20:51 40.72495 19.11146 23095 ft 443 kts 30°
2026-04-27 20:52 40.75088 19.13388 22482 ft 444 kts 31°
2026-04-27 20:52 40.77663 19.15626 21722 ft 441 kts 31°
2026-04-27 20:52 40.80196 19.17835 21034 ft 436 kts 31°
2026-04-27 20:52 40.82698 19.20021 20338 ft 433 kts 32°
2026-04-27 20:53 40.85196 19.22206 19665 ft 430 kts 32°
2026-04-27 20:53 40.87674 19.24380 19032 ft 426 kts 32°
2026-04-27 20:53 40.90144 19.26548 18414 ft 422 kts 32°
2026-04-27 20:53 40.92528 19.28725 17812 ft 418 kts 34°
2026-04-27 20:54 40.96992 19.33613 16646 ft 412 kts 41°
2026-04-27 20:54 40.99053 19.36229 16057 ft 408 kts 42°
2026-04-27 20:54 41.01066 19.38831 15496 ft 404 kts 43°
2026-04-27 20:55 41.03047 19.41400 14944 ft 400 kts 43°
2026-04-27 20:55 41.05039 19.43984 14388 ft 395 kts 43°
2026-04-27 20:55 41.06998 19.46523 13831 ft 391 kts 44°
2026-04-27 20:55 41.08906 19.48995 13278 ft 388 kts 44°
2026-04-27 20:56 41.10835 19.51496 12711 ft 384 kts 44°
2026-04-27 20:56 41.12740 19.53955 12144 ft 381 kts 44°
2026-04-27 20:56 41.14625 19.56395 11732 ft 373 kts 44°
2026-04-27 20:56 41.16661 19.58420 11432 ft 363 kts 27°
2026-04-27 20:57 41.19024 19.59365 11188 ft 354 kts
2026-04-27 20:57 41.21456 19.59304 11005 ft 343 kts 356°
2026-04-27 20:57 41.23800 19.58977 10823 ft 331 kts 355°
2026-04-27 20:57 41.26028 19.58649 10657 ft 320 kts 355°
2026-04-27 20:58 41.28190 19.58338 10507 ft 308 kts 355°
2026-04-27 20:58 41.30293 19.58042 10367 ft 297 kts 355°
2026-04-27 20:58 41.32303 19.57763 10243 ft 286 kts 356°
2026-04-27 20:58 41.34244 19.57496 10128 ft 276 kts 356°
2026-04-27 20:59 41.36163 19.57235 9814 ft 275 kts 356°
2026-04-27 20:59 41.38046 19.56980 9489 ft 275 kts 356°
2026-04-27 20:59 41.39957 19.56721 9159 ft 274 kts 356°
2026-04-27 20:59 41.41820 19.56467 8833 ft 272 kts 356°
2026-04-27 21:00 41.43700 19.56211 8515 ft 269 kts 356°
2026-04-27 21:00 41.45535 19.55962 8211 ft 266 kts 356°
2026-04-27 21:00 41.47373 19.55711 7897 ft 264 kts 356°
2026-04-27 21:00 41.49203 19.55462 7586 ft 261 kts 356°
2026-04-27 21:01 41.50979 19.55220 7284 ft 259 kts 355°
2026-04-27 21:01 41.52772 19.54975 6988 ft 256 kts 355°
2026-04-27 21:01 41.54552 19.54733 6685 ft 254 kts 355°
2026-04-27 21:01 41.56300 19.54495 6388 ft 252 kts 355°
2026-04-27 21:02 41.58012 19.54264 6098 ft 249 kts 355°
2026-04-27 21:02 41.59739 19.54027 5813 ft 247 kts 355°
2026-04-27 21:02 41.61430 19.54081 5491 ft 244 kts 17°
2026-04-27 21:02 41.62909 19.55126 5207 ft 237 kts 44°
2026-04-27 21:03 41.63847 19.56880 4909 ft 233 kts 70°
2026-04-27 21:03 41.64177 19.58992 4625 ft 230 kts 85°
2026-04-27 21:03 41.64306 19.61088 4352 ft 228 kts 86°
2026-04-27 21:03 41.64399 19.62512 4203 ft 225 kts 85°
2026-04-27 21:04 41.64586 19.65226 4129 ft 217 kts 86°
2026-04-27 21:04 41.64450 19.67203 4002 ft 215 kts 114°
2026-04-27 21:04 41.63564 19.68831 4024 ft 216 kts 143°
2026-04-27 21:04 41.62181 19.69604 3918 ft 218 kts 175°
2026-04-27 21:05 41.60679 19.69485 3644 ft 218 kts 179°
2026-04-27 21:05 41.59163 19.69659 3356 ft 217 kts 172°
2026-04-27 21:05 41.57673 19.69899 3062 ft 217 kts 172°
2026-04-27 21:05 41.56655 19.70050 2866 ft 217 kts 173°
2026-04-27 21:06 41.54662 19.70324 2501 ft 215 kts 174°
2026-04-27 21:06 41.53224 19.70516 2217 ft 202 kts 174°
2026-04-27 21:06 41.51871 19.70696 1935 ft 190 kts 173°
2026-04-27 21:06 41.50590 19.70865 1703 ft 176 kts 173°
2026-04-27 21:07 41.49802 19.70970 1534 ft 168 kts 174°
2026-04-27 21:07 41.49421 19.71020 1454 ft 164 kts 174°
2026-04-27 21:08 41.49053 19.71069 1377 ft 160 kts 174°